Weather History for Albert Lea, MN

Change the Weather History Date:

Sunday, May 11, 2014

  Actual Average Record
Temperature  
Mean Temperature 60 °F -  
Max Temperature 71 °F 64 °F 84 °F (2004)
Min Temperature 48 °F 44 °F 32 °F (2002)
Degree Days  
Heating Degree Days 6    
Growing Degree Days 10 (Base 50)    
Moisture  
Dew Point 54 °F    
Average Humidity 80    
Maximum Humidity 100    
Minimum Humidity 57    
Precipitation  
Precipitation 0.06 in - - ()
Sea Level Pressure  
Sea Level Pressure 29.82 in    
Wind  
Wind Speed 6 mph (ESE)    
Max Wind Speed 17 mph    
Max Gust Speed 23 mph    
Visibility 10 miles    
Events Rain , Thunderstorm    
Averages and records for this station are not official NWS values.
T = Trace of Precipitation, MM = Missing Value Source: NWS Daily Summary

Daily Weather History Graph

Daily Weather History Graph

Search for Another Location

Airport:

Trip Planner

Search our weather history database for the weather conditions in past years. The results will help you decide how hot, cold, wet, or windy it might be!

Date:

Astronomy

May. 11, 2014 Rise Set
Actual Time 5:52 AM CDT 8:27 PM CDT
Civil Twilight 5:20 AM CDT 9:00 PM CDT
Nautical Twilight 4:39 AM CDT 9:41 PM CDT
Astronomical Twilight 3:52 AM CDT 10:28 PM CDT
Moon 5:18 PM CDT (5/11) 4:05 AM CDT (5/11)
Length of Visible Light 15h 40m
Length of Day
14h 34m
Waxing Gibbous, 89% of the Moon is Illuminated
May 11
Waxing Gibbous
May 14
Full
May 21
Last Quarter
May 28
New
Jun 5
First Quarter

Hourly Weather History & Observations

Time (CDT) Temp. Dew Point Humidity Pressure Visibility Wind Dir Wind Speed Gust Speed Precip Events Conditions
12:08 AM 57.2 °F 51.8 °F 82% 29.84 in 10.0 mi East 6.9 mph - N/A   Mostly Cloudy
12:28 AM 57.2 °F 51.8 °F 82% 29.83 in 10.0 mi East 6.9 mph - N/A   Mostly Cloudy
12:48 AM 59.0 °F 50.0 °F 72% 29.84 in 10.0 mi East 6.9 mph - N/A   Mostly Cloudy
1:08 AM 55.4 °F 50.0 °F 82% 29.83 in 10.0 mi ENE 4.6 mph - N/A   Mostly Cloudy
1:28 AM 55.4 °F 48.2 °F 77% 29.83 in 10.0 mi East 8.1 mph - N/A   Scattered Clouds
1:48 AM 55.4 °F 48.2 °F 77% 29.83 in 10.0 mi East 5.8 mph - N/A   Clear
2:08 AM 55.4 °F 48.2 °F 77% 29.83 in 10.0 mi ESE 5.8 mph - N/A   Clear
2:28 AM 55.4 °F 48.2 °F 77% 29.82 in 10.0 mi East 5.8 mph - N/A   Clear
2:48 AM 53.6 °F 48.2 °F 82% 29.82 in 10.0 mi East 3.5 mph - N/A   Clear
3:08 AM 53.6 °F 48.2 °F 82% 29.81 in 10.0 mi East 6.9 mph - N/A   Clear
3:28 AM 53.6 °F 48.2 °F 82% 29.82 in 10.0 mi SE 3.5 mph - N/A   Clear
3:48 AM 53.6 °F 48.2 °F 82% 29.83 in 10.0 mi Calm Calm - N/A   Clear
4:08 AM 51.8 °F 48.2 °F 88% 29.83 in 10.0 mi SE 4.6 mph - N/A   Clear
4:28 AM 53.6 °F 48.2 °F 82% 29.82 in 10.0 mi Calm Calm - N/A   Clear
4:48 AM 51.8 °F 48.2 °F 88% 29.82 in 10.0 mi SE 3.5 mph - N/A   Clear
5:08 AM 51.8 °F 48.2 °F 88% 29.82 in 10.0 mi Calm Calm - N/A   Clear
5:28 AM 51.8 °F 48.2 °F 88% 29.83 in 10.0 mi Calm Calm - N/A   Clear
5:48 AM 51.8 °F 46.4 °F 82% 29.83 in 10.0 mi Calm Calm - N/A   Clear
6:08 AM 48.2 °F 46.4 °F 93% 29.83 in 7.0 mi Calm Calm - N/A   Clear
6:28 AM 50.0 °F 48.2 °F 94% 29.83 in 10.0 mi SSE 3.5 mph - N/A   Clear
6:48 AM 48.2 °F 46.4 °F 93% 29.84 in 10.0 mi Calm Calm - N/A   Clear
7:08 AM 51.8 °F 50.0 °F 94% 29.84 in 10.0 mi Calm Calm - N/A   Clear
7:28 AM 53.6 °F 50.0 °F 88% 29.85 in 10.0 mi Calm Calm - N/A   Clear
7:48 AM 53.6 °F 51.8 °F 94% 29.85 in 10.0 mi Calm Calm - N/A   Clear
8:08 AM 55.4 °F 51.8 °F 88% 29.86 in 10.0 mi Calm Calm - N/A   Scattered Clouds
8:28 AM 55.4 °F 51.8 °F 88% 29.85 in 10.0 mi Calm Calm - N/A   Clear
8:48 AM 55.4 °F 51.8 °F 88% 29.86 in 10.0 mi SSE 4.6 mph - N/A   Clear
9:08 AM 55.4 °F 51.8 °F 88% 29.87 in 10.0 mi SE 4.6 mph - N/A   Clear
9:28 AM 55.4 °F 51.8 °F 88% 29.87 in 10.0 mi Calm Calm - N/A   Clear
9:48 AM 57.2 °F 53.6 °F 88% 29.88 in 10.0 mi South 4.6 mph - N/A   Clear
10:08 AM 57.2 °F 53.6 °F 88% 29.89 in 10.0 mi SW 5.8 mph - N/A   Clear
10:28 AM 57.2 °F 53.6 °F 88% 29.88 in 10.0 mi Calm Calm - N/A   Clear
10:48 AM 57.2 °F 53.6 °F 88% 29.89 in 10.0 mi Calm Calm - N/A   Scattered Clouds
11:08 AM 59.0 °F 55.4 °F 88% 29.89 in 10.0 mi Calm Calm - N/A   Scattered Clouds
11:28 AM 60.8 °F 55.4 °F 82% 29.90 in 10.0 mi WNW 3.5 mph - N/A Rain Light Rain
11:48 AM 59.0 °F 55.4 °F 88% 29.92 in 10.0 mi WSW 3.5 mph - N/A Rain Light Rain
12:08 PM 60.8 °F 55.4 °F 82% 29.92 in 10.0 mi West 4.6 mph - N/A Rain Light Rain
12:28 PM 59.0 °F 55.4 °F 88% 29.92 in 7.0 mi SSW 4.6 mph - N/A Rain Light Rain
12:48 PM 59.0 °F 55.4 °F 88% 29.89 in 10.0 mi SE 3.5 mph - N/A   Light Drizzle
1:08 PM 60.8 °F 55.4 °F 82% 29.85 in 10.0 mi East 6.9 mph - N/A Rain Light Rain
1:28 PM 60.8 °F 55.4 °F 82% 29.85 in 10.0 mi East 6.9 mph - N/A   Light Drizzle
1:48 PM 62.6 °F 57.2 °F 82% 29.85 in 10.0 mi ENE 8.1 mph - N/A   Clear
2:08 PM 66.2 °F 55.4 °F 68% 29.85 in 10.0 mi ENE 11.5 mph - N/A   Clear
2:28 PM 68.0 °F 55.4 °F 64% 29.84 in 10.0 mi East 9.2 mph - N/A   Clear
2:48 PM 69.8 °F 55.4 °F 60% 29.83 in 10.0 mi East 10.4 mph - N/A   Clear
3:08 PM 69.8 °F 55.4 °F 60% 29.83 in 10.0 mi East 11.5 mph - N/A   Clear
3:28 PM 69.8 °F 55.4 °F 60% 29.82 in 10.0 mi East 11.5 mph 17.3 mph N/A   Scattered Clouds
3:48 PM 69.8 °F 57.2 °F 64% 29.81 in 10.0 mi East 11.5 mph - N/A   Clear
4:08 PM 71.6 °F 55.4 °F 57% 29.80 in 10.0 mi East 12.7 mph 17.3 mph N/A   Clear
4:28 PM 71.6 °F 55.4 °F 57% 29.80 in 10.0 mi East 15.0 mph - N/A   Clear
4:48 PM 71.6 °F 55.4 °F 57% 29.79 in 10.0 mi East 12.7 mph 19.6 mph N/A   Clear
5:08 PM 71.6 °F 57.2 °F 60% 29.79 in 10.0 mi East 11.5 mph - N/A   Clear
5:28 PM 71.6 °F 57.2 °F 60% 29.79 in 10.0 mi ESE 9.2 mph - N/A   Mostly Cloudy
5:48 PM 71.6 °F 57.2 °F 60% 29.78 in 10.0 mi ESE 13.8 mph - N/A   Mostly Cloudy
6:08 PM 69.8 °F 57.2 °F 64% 29.78 in 10.0 mi ESE 12.7 mph 19.6 mph N/A   Scattered Clouds
6:28 PM 69.8 °F 57.2 °F 64% 29.77 in 10.0 mi East 17.3 mph 23.0 mph N/A   Overcast
6:48 PM 68.0 °F 57.2 °F 68% 29.76 in 10.0 mi East 12.7 mph - N/A   Overcast
7:08 PM 68.0 °F 57.2 °F 68% 29.75 in 10.0 mi East 12.7 mph - N/A Thunderstorm Overcast
7:28 PM 68.0 °F 59.0 °F 73% 29.75 in 10.0 mi East 12.7 mph - N/A Thunderstorm Thunderstorm
7:48 PM 66.2 °F 57.2 °F 73% 29.75 in 10.0 mi East 12.7 mph 18.4 mph N/A   Overcast
8:08 PM 66.2 °F 59.0 °F 78% 29.76 in 10.0 mi ESE 12.7 mph 19.6 mph N/A   Overcast
8:28 PM 66.2 °F 59.0 °F 78% 29.75 in 10.0 mi ESE 15.0 mph - N/A Thunderstorm Overcast
8:48 PM 66.2 °F 59.0 °F 78% 29.74 in 10.0 mi ESE 13.8 mph 18.4 mph N/A   Mostly Cloudy
9:08 PM 64.4 °F 59.0 °F 83% 29.72 in 10.0 mi ESE 13.8 mph 21.9 mph N/A Rain , Thunderstorm Light Thunderstorms and Rain
9:28 PM 64.4 °F 60.8 °F 88% 29.73 in 10.0 mi ESE 12.7 mph 18.4 mph N/A Rain Light Rain
9:48 PM 64.4 °F 60.8 °F 88% 29.75 in 10.0 mi ESE 13.8 mph 18.4 mph N/A Rain Light Rain
10:08 PM 64.4 °F 60.8 °F 88% 29.73 in 10.0 mi ESE 11.5 mph - N/A Rain Light Rain
10:28 PM 62.6 °F 60.8 °F 94% 29.74 in 5.0 mi SE 11.5 mph 18.4 mph 0.05 in Rain , Thunderstorm Rain
10:48 PM 62.6 °F 62.6 °F 100% 29.72 in 7.0 mi SSE 8.1 mph - N/A Rain , Thunderstorm Light Thunderstorms and Rain
11:08 PM 62.6 °F 62.6 °F 100% 29.71 in 10.0 mi ESE 5.8 mph - 0.01 in Rain Light Rain
11:28 PM 62.6 °F 62.6 °F 100% 29.72 in 7.0 mi SE 12.7 mph - 0.01 in   Light Drizzle
11:48 PM 62.6 °F 62.6 °F 100% 29.75 in 7.0 mi South 12.7 mph 19.6 mph N/A Rain , Thunderstorm Rain